KMOLAKE37 Weather Reports


time (UTC)temp
C
wind
direction
speed
KPH
gust
KPH
rain 1hr
cm
rain 24hr
cm
rain mn
cm
humidity
%
barometer
mb
20260906154545 28 307 0.0 9.7 0.00 0.00 0.00 73 1017.9
20260906153043 28 106 1.6 8.0 0.00 0.00 0.00 72 1017.6
20260906151551 27 67 3.2 9.7 0.00 0.00 0.00 75 1017.4
20260906150048 27 110 1.6 9.7 0.00 0.00 0.00 76 1017.2
20260906144603 27 55 1.6 8.0 0.00 0.00 0.00 76 1017.0
20260906143042 26 65 1.6 12.9 0.00 0.00 0.00 78 1017.1
20260906141549 26 65 3.2 6.4 0.00 0.00 0.00 79 1016.8
20260906140044 26 0 0.0 6.4 0.00 0.00 0.00 80 1016.8
20260906134542 26 357 0.0 6.4 0.00 0.00 0.00 81 1016.8
20260906133049 25 50 0.0 4.8 0.00 0.00 0.00 82 1016.8
20260906131541 25 13 0.0 6.4 0.00 0.00 0.00 84 1016.8
20260906130051 24 345 0.0 1.6 0.00 0.00 0.00 85 1017.0
20260906124543 23 0 0.0 1.6 0.00 0.00 0.00 88 1016.8
20260906123040 22 7 0.0 1.6 0.00 0.00 0.00 89 1016.8
20260906121545 22 354 0.0 0.0 0.00 0.00 0.00 89 1016.3
20260906120048 22 0 0.0 3.2 0.00 0.00 0.00 89 1016.2
20260906114554 22 0 0.0 0.0 0.00 0.00 0.00 88 1016.1
20260906113041 23 0 0.0 0.0 0.00 0.00 0.00 88 1015.8
20260906111545 23 0 0.0 0.0 0.00 0.00 0.00 88 1015.8
20260906110043 23 0 0.0 0.0 0.00 0.00 0.00 88 1015.8
20260906104548 23 0 0.0 3.2 0.00 0.00 0.00 88 1015.7
20260906103040 23 0 0.0 1.6 0.00 0.00 0.00 87 1015.6
20260906101544 24 0 0.0 3.2 0.00 0.00 0.00 88 1015.5
20260906100043 24 0 0.0 3.2 0.00 0.00 0.00 87 1015.3
20260906094557 24 0 0.0 3.2 0.00 0.00 0.00 87 1015.0
20260906093102 25 0 0.0 3.2 0.00 0.00 0.00 87 1015.2
20260906091545 25 0 0.0 3.2 0.00 0.00 0.00 87 1015.3
20260906090046 25 0 0.0 4.8 0.00 0.00 0.00 87 1015.1
20260906084542 25 348 0.0 3.2 0.00 0.00 0.00 87 1014.9
20260906083049 25 5 0.0 3.2 0.00 0.00 0.00 87 1014.7
20260906081546 26 0 0.0 4.8 0.00 0.00 0.00 87 1014.7
20260906080045 26 0 0.0 6.4 0.00 0.00 0.00 87 1014.6
20260906074542 26 11 0.0 4.8 0.00 0.00 0.00 87 1014.6
20260906073041 26 165 0.0 3.2 0.00 0.00 0.00 87 1014.8
20260906071545 26 0 0.0 1.6 0.00 0.00 0.00 86 1014.9
20260906070045 26 316 0.0 3.2 0.00 0.00 0.00 86 1014.7
20260906064542 26 0 0.0 0.0 0.00 0.00 0.00 85 1014.6
20260906063043 26 0 0.0 0.0 0.00 0.00 0.00 84 1014.9
20260906061546 26 0 0.0 0.0 0.00 0.00 0.00 84 1014.6
20260906060045 26 0 0.0 0.0 0.00 0.00 0.00 84 1014.7
20260906054543 26 0 0.0 0.0 0.00 0.00 0.00 82 1014.6
20260906053041 27 0 0.0 0.0 0.00 0.00 0.00 81 1014.6
20260906051549 27 0 0.0 0.0 0.00 0.00 0.00 80 1014.7
20260906050049 27 0 0.0 0.0 0.00 0.00 0.00 80 1014.6
20260906044544 27 0 0.0 0.0 0.00 0.00 0.00 78 1014.5
20260906043038 27 0 0.0 0.0 0.00 0.00 0.00 77 1014.2
20260906041546 27 0 0.0 0.0 0.00 0.00 0.00 76 1014.3
20260906040054 27 0 0.0 0.0 0.00 0.00 0.00 76 1014.1
20260906034542 27 0 0.0 0.0 0.00 0.00 0.00 75 1014.2
20260906033048 27 0 0.0 0.0 0.00 0.00 0.00 74 1014.0
20260906031545 28 0 0.0 0.0 0.00 0.00 0.00 75 1014.0
20260906030043 28 0 0.0 0.0 0.00 0.00 0.00 75 1013.9
20260906024551 28 0 0.0 0.0 0.00 0.00 0.00 72 1013.8
20260906023041 28 0 0.0 0.0 0.00 0.00 0.00 72 1013.5
20260906021547 28 0 0.0 0.0 0.00 0.00 0.00 71 1013.3
20260906020046 29 0 0.0 0.0 0.00 0.00 0.00 70 1013.1
20260906014611 30 0 0.0 0.0 0.00 0.00 0.00 68 1012.8
20260906013048 30 0 0.0 0.0 0.00 0.00 0.00 67 1012.7
20260906011542 30 0 0.0 0.0 0.00 0.00 0.00 66 1012.6
20260906010051 31 0 0.0 0.0 0.00 0.00 0.00 64 1012.6
20260906004541 31 0 0.0 0.0 0.00 0.00 0.00 63 1012.3
20260906003043 32 0 0.0 0.0 0.00 0.00 0.00 61 1012.2
20260906001542 32 0 0.0 1.6 0.00 0.00 0.00 59 1012.4
20260906000047 33 0 0.0 1.6 0.00 0.00 0.00 58 1012.5
20260905234544 33 0 0.0 0.0 0.00 0.00 0.00 57 1012.3
20260905233046 33 0 0.0 4.8 0.00 0.00 0.00 56 1012.4
20260905231546 34 0 0.0 9.7 0.00 0.00 0.00 54 1012.5
20260905230048 35 227 0.0 4.8 0.00 0.00 0.00 51 1012.7
20260905224542 35 316 0.0 14.5 0.00 0.00 0.00 49 1012.4
20260905223042 36 351 0.0 4.8 0.00 0.00 0.00 49 1012.3
20260905221605 37 0 0.0 8.0 0.00 0.00 0.00 46 1012.3
20260905220046 38 0 1.6 6.4 0.00 0.00 0.00 44 1012.3
20260905214541 38 344 1.6 11.3 0.00 0.00 0.00 43 1012.4
20260905213058 38 8 0.0 6.4 0.00 0.00 0.00 43 1012.4
20260905211546 38 65 0.0 6.4 0.00 0.00 0.00 43 1012.3
20260905210051 38 342 0.0 6.4 0.00 0.00 0.00 43 1012.5
20260905204548 38 88 3.2 11.3 0.00 0.00 0.00 44 1012.8
20260905203046 38 251 1.6 11.3 0.00 0.00 0.00 44 1012.7
20260905201601 38 321 1.6 11.3 0.00 0.00 0.00 44 1012.8
20260905200046 38 212 1.6 9.7 0.00 0.00 0.00 46 1012.8
20260905194546 39 235 1.6 9.7 0.00 0.00 0.00 42 1012.9
20260905193054 39 13 1.6 9.7 0.00 0.00 0.00 40 1013.1
20260905191544 38 226 3.2 8.0 0.00 0.00 0.00 41 1013.4
20260905190044 38 354 1.6 11.3 0.00 0.00 0.00 40 1013.4
20260905184554 39 265 3.2 12.9 0.00 0.00 0.00 40 1013.4
20260905183045 38 223 1.6 4.8 0.00 0.00 0.00 41 1013.5
20260905181557 38 314 0.0 9.7 0.00 0.00 0.00 42 1013.7
20260905180041 38 0 1.6 6.4 0.00 0.00 0.00 43 1013.9
20260905174549 38 0 3.2 8.0 0.00 0.00 0.00 43 1014.1
20260905173048 38 48 1.6 4.8 0.00 0.00 0.00 45 1014.2
20260905171544 38 84 0.0 6.4 0.00 0.00 0.00 48 1014.4
20260905170043 37 41 1.6 6.4 0.00 0.00 0.00 49 1014.8
20260905164543 37 91 3.2 11.3 0.00 0.00 0.00 49 1014.9
20260905163045 37 262 1.6 6.4 0.00 0.00 0.00 49 1015.0
20260905161557 36 0 0.0 6.4 0.00 0.00 0.00 51 1015.1
20260905160045 36 73 0.0 8.0 0.00 0.00 0.00 53 1015.1